Theta_e
320 318 323 329 332 338 335 330 327 328 327 319 320 321 323 327 327 326 326 327 327 327 327 327 328 329 332 331 332 330 332 336 337 333 335 345 342 339 340 340 343 344 351 348 337 338 341 342 344 348 350 350 349 347 347 346 344 342 338 337 335 331 325 320 321 324 326 327 329 328 328 327 326 330 333 333 336 338 340 341 342 341 342 342 342 340 337 336 334 333 335 337 338 339 338 337 336
322 322 326 331 333 335 332 329 325 323 321 316 319 322 323 327 325 325 326 326 327 328 326 327 328 328 330 329 329 328 333 336 337 340 339 341 340 339 340 341 343 346 352 349 338 337 344 345 343 347 350 350 349 347 347 346 345 342 338 337 335 331 325 320 321 324 327 328 329 329 328 326 326 331 332 334 337 339 340 341 341 341 342 342 342 341 339 337 334 331 332 335 337 338 338 336 335
324 327 328 329 330 331 330 328 322 318 318 316 317 323 325 325 325 326 326 325 327 327 327 327 326 328 328 329 329 330 334 335 336 340 339 340 341 339 341 342 345 347 352 349 341 340 346 346 344 346 349 350 349 348 347 346 345 342 339 337 335 331 324 320 321 324 328 328 329 329 327 325 327 331 333 335 337 339 341 341 342 342 342 342 342 341 340 339 336 333 332 334 336 337 336 335 334
323 326 326 326 326 327 328 326 323 317 315 315 316 324 325 324 325 325 326 326 326 325 326 326 326 327 327 328 329 330 333 334 337 340 340 341 342 341 340 341 345 348 351 349 344 345 346 344 344 346 349 350 349 348 346 346 345 342 339 337 335 331 323 319 320 323 327 329 329 328 326 327 330 332 334 337 338 340 341 341 342 342 343 343 342 341 340 341 340 336 333 333 334 335 334 334 333
320 323 323 325 325 325 326 325 324 318 315 316 316 323 325 324 325 325 326 326 326 325 326 326 325 326 327 329 329 331 333 333 335 340 341 341 341 341 340 343 346 347 349 347 345 349 346 342 344 346 349 349 349 348 347 346 345 342 339 338 335 331 322 317 318 321 325 328 328 327 327 331 333 332 335 337 338 340 341 341 342 342 342 342 342 341 341 340 341 339 335 332 331 331 332 332 333
318 319 321 323 325 326 326 322 319 318 321 323 320 323 324 324 324 324 325 326 326 325 325 325 325 325 326 328 330 332 333 334 335 338 341 342 341 340 341 345 346 346 349 346 345 350 346 341 344 346 349 349 349 348 348 347 346 343 340 338 336 331 322 316 317 320 323 325 326 326 329 334 334 332 335 337 338 340 341 341 341 342 341 341 341 341 341 341 341 340 337 333 329 330 331 331 332
317 317 320 322 323 324 324 320 318 319 323 326 324 324 324 324 324 324 324 325 326 325 325 325 324 325 325 327 330 332 333 335 336 338 342 343 341 339 341 346 346 345 347 345 345 351 346 340 343 346 348 349 349 348 348 347 346 344 341 339 336 332 323 317 317 320 323 324 325 327 331 336 335 333 334 335 337 339 340 341 341 341 340 340 341 340 341 340 340 340 338 334 329 328 329 330 331
318 318 319 322 323 323 321 318 319 321 322 324 323 323 324 324 324 324 324 324 324 325 325 324 325 324 325 325 328 333 334 334 335 338 342 343 342 341 342 345 346 345 347 345 346 351 346 339 343 345 347 348 348 348 348 347 346 345 342 340 336 332 325 318 318 320 323 324 326 328 332 337 336 333 333 334 336 338 339 340 340 339 339 340 340 340 340 340 340 339 338 335 331 329 328 329 330
318 317 319 320 321 321 319 317 318 320 321 322 322 322 323 323 323 323 323 323 324 325 324 324 324 324 325 323 327 333 333 333 337 342 343 343 343 343 343 343 344 345 345 346 347 350 345 339 341 343 346 347 348 348 348 348 347 345 343 341 337 332 327 321 318 320 323 324 327 330 334 338 337 333 332 333 334 336 337 338 337 336 338 339 340 340 338 337 338 338 338 336 333 330 328 327 328
318 317 318 319 319 316 315 316 318 320 321 322 321 322 322 321 322 323 323 323 323 324 325 324 323 324 324 322 328 334 334 334 339 344 342 341 343 342 342 343 343 344 344 346 348 348 343 339 341 341 343 345 346 347 347 348 347 346 344 341 338 333 329 324 320 320 324 325 328 332 336 339 337 333 332 332 332 333 334 334 333 333 335 338 340 338 336 335 337 338 338 337 334 332 330 328 327
317 317 317 317 316 312 312 314 317 320 321 321 321 322 322 321 321 322 323 323 323 324 323 323 322 323 323 322 330 335 336 336 339 343 341 342 343 341 341 341 343 343 343 347 350 348 341 340 342 341 341 342 343 344 345 347 347 346 344 342 339 334 331 328 323 320 323 325 329 333 336 339 337 332 332 332 331 331 331 330 329 329 330 333 336 335 334 334 336 339 338 338 336 333 332 329 328
316 316 317 315 313 313 313 314 316 320 320 320 320 321 322 322 321 321 323 324 323 323 322 322 322 323 322 322 332 335 334 337 340 340 340 342 343 340 340 340 342 342 342 347 349 346 339 340 344 342 341 341 340 342 343 345 347 346 344 343 340 337 334 331 326 321 322 325 330 334 336 339 338 333 331 331 331 330 329 329 328 328 328 329 330 332 333 333 334 338 339 337 336 335 333 332 330
315 316 316 315 315 315 314 314 316 319 318 319 319 320 322 321 321 321 323 324 323 322 322 322 322 322 321 322 333 335 334 339 342 340 340 340 340 340 340 339 340 340 341 347 349 345 338 340 345 345 343 342 341 342 342 343 346 346 345 344 342 339 335 332 327 321 321 324 330 335 338 340 339 333 330 331 330 329 328 328 328 328 328 327 327 330 332 332 333 337 338 337 336 335 334 333 331
314 316 316 315 316 316 315 314 315 314 315 318 320 320 321 320 321 322 322 322 322 322 322 322 322 322 322 321 332 336 336 338 340 340 341 339 339 340 339 338 338 339 341 346 347 345 341 341 344 345 344 343 343 344 343 344 345 345 345 344 342 339 335 332 327 322 320 324 331 337 339 340 339 334 330 331 330 329 329 328 328 328 328 327 327 328 330 332 333 335 337 336 335 335 334 333 332
314 315 316 315 314 314 315 315 316 314 314 319 319 320 320 321 321 321 322 322 321 322 321 322 321 321 321 320 331 336 336 336 337 339 341 340 338 338 338 338 338 339 341 344 344 345 344 343 345 344 343 343 343 344 344 344 345 344 344 342 340 337 334 331 327 324 320 324 333 338 339 340 339 334 330 331 330 329 329 328 328 328 327 327 327 327 329 332 333 334 335 335 335 335 335 334 332
314 314 315 314 312 312 314 315 316 314 316 320 319 320 319 320 321 321 321 321 320 320 320 320 320 320 320 325 335 336 335 337 337 339 340 340 339 336 336 338 339 339 341 342 342 344 344 343 344 343 344 343 343 343 343 344 343 343 343 341 339 337 334 331 328 324 321 327 336 339 339 339 339 336 331 330 330 330 329 329 329 328 327 326 326 326 329 331 333 334 334 335 335 335 335 334 332
315 314 313 312 311 311 313 316 315 314 317 319 319 320 319 319 321 320 320 320 319 319 319 319 320 321 320 325 335 336 335 335 337 341 342 341 340 338 340 342 341 339 341 341 341 343 343 343 344 344 344 343 343 343 342 343 343 342 342 341 338 335 333 330 328 327 328 333 338 339 338 338 338 338 334 332 330 330 329 329 329 328 327 325 325 326 328 331 333 334 334 334 335 334 334 333 333
315 314 313 311 312 313 315 316 316 316 317 318 318 318 318 319 319 320 319 319 319 318 318 318 319 320 320 321 326 333 335 335 336 341 343 343 341 341 343 342 342 340 340 341 340 342 342 342 344 343 344 343 343 343 342 341 341 340 340 338 335 335 335 333 332 333 335 338 339 339 337 337 337 337 335 333 330 330 330 328 329 328 326 324 323 325 328 331 333 334 333 334 334 334 333 332 333
314 315 313 312 314 314 316 317 316 317 317 317 318 317 317 317 318 318 317 317 317 317 318 318 318 318 319 320 321 327 333 334 336 340 344 344 341 341 342 340 341 341 339 339 340 341 342 342 344 343 343 343 343 343 342 339 335 335 334 332 333 336 338 337 337 337 337 339 340 339 337 338 338 337 333 333 331 329 330 329 329 328 325 322 322 325 328 331 333 333 333 334 334 336 336 334 333
313 313 313 313 314 315 316 316 315 316 316 316 317 316 316 316 317 317 316 316 316 317 317 317 317 317 318 318 319 320 325 334 336 337 340 343 341 340 341 340 340 340 339 339 339 340 342 342 343 343 343 343 344 344 343 340 336 335 333 330 331 336 338 338 339 338 338 339 340 337 339 341 341 340 334 335 336 330 329 330 329 328 326 322 321 324 328 331 333 333 334 334 337 340 340 339 336
313 313 312 314 314 314 315 316 315 314 315 314 315 315 314 315 315 315 315 315 315 316 316 316 316 317 318 318 319 320 321 334 339 336 335 341 342 339 340 341 341 342 340 338 338 340 340 341 343 344 343 344 344 344 343 342 341 340 338 334 331 333 336 338 338 339 339 340 340 338 340 342 341 342 337 338 340 333 328 330 329 328 326 323 321 324 328 330 332 332 334 336 339 341 341 340 338
314 313 313 314 314 314 314 315 314 313 313 313 313 313 313 314 314 314 314 313 314 315 316 316 316 317 317 318 319 322 328 335 341 340 337 338 340 341 342 343 342 342 340 337 338 340 340 340 343 344 343 344 345 344 343 343 342 342 342 339 336 334 333 336 338 339 339 339 340 338 339 342 340 340 338 338 341 336 330 329 329 328 327 324 321 325 328 328 332 333 335 338 339 340 340 339 337
313 313 313 313 314 314 314 314 313 312 312 312 312 313 313 313 312 313 313 313 314 314 315 315 316 317 316 317 317 321 330 334 337 338 339 339 340 342 342 342 341 339 338 337 337 340 341 340 342 344 344 345 345 344 343 343 342 342 342 340 340 339 334 336 339 339 340 339 339 338 338 340 339 338 338 338 341 339 334 331 331 332 331 326 324 331 332 328 334 337 337 338 338 339 340 338 337
313 312 313 313 313 313 313 313 313 312 312 312 313 312 312 312 312 313 313 313 314 314 315 314 315 317 316 317 319 324 331 333 330 328 330 334 339 342 340 339 340 339 337 337 338 340 340 340 340 342 345 345 345 344 344 343 342 342 341 341 341 341 338 338 339 338 339 338 338 339 338 338 336 337 338 338 340 339 337 334 333 336 336 331 328 335 336 329 334 339 337 338 338 338 338 337 338
313 312 312 312 313 313 313 313 312 312 312 312 312 312 312 312 312 313 312 313 314 314 314 314 314 317 317 317 322 327 329 330 325 321 323 327 336 340 338 338 338 339 339 338 340 340 340 340 339 341 344 345 344 344 344 344 342 341 341 341 341 341 339 340 339 338 339 337 337 338 337 336 334 337 338 338 339 338 338 336 335 336 337 335 330 334 336 331 334 336 334 337 337 336 336 336 338
312 312 312 313 312 313 313 312 312 312 312 312 312 312 312 313 313 312 313 313 314 314 314 314 314 316 317 315 321 325 324 325 324 323 322 323 335 338 337 337 336 338 341 341 340 340 341 339 339 341 343 344 344 344 345 344 342 342 342 341 341 340 340 340 339 339 340 338 338 338 337 337 335 337 338 337 338 338 338 337 335 335 335 335 331 332 335 332 333 334 333 334 334 335 335 336 338
312 312 312 313 312 312 313 312 312 312 312 312 312 311 312 313 312 312 312 313 314 314 313 314 314 315 317 315 320 323 322 324 322 323 324 324 333 338 337 337 336 338 341 343 343 341 340 339 339 340 341 342 341 343 345 344 342 342 343 341 341 340 340 340 340 339 340 339 338 337 337 337 336 337 338 338 338 337 338 337 335 335 334 335 332 331 335 332 333 335 333 332 332 333 334 335 337
312 312 312 311 312 311 312 312 312 312 312 312 312 311 312 312 312 311 313 314 314 313 313 313 313 314 316 316 319 322 323 322 320 323 329 328 328 334 337 336 338 341 342 344 344 342 340 340 340 339 340 340 340 341 343 344 343 342 343 343 341 341 340 340 341 340 340 339 339 338 337 338 337 337 338 338 337 336 338 337 335 335 334 335 334 331 334 334 334 335 334 332 331 333 334 334 336
311 311 310 310 311 311 311 311 312 312 311 312 312 310 310 311 311 312 313 314 313 313 313 313 314 316 316 318 319 319 322 321 320 322 325 326 324 328 335 335 338 342 343 341 339 341 340 339 339 338 339 340 339 341 341 342 343 343 343 343 342 342 340 340 341 341 341 341 340 339 339 339 338 338 338 337 337 336 338 338 336 336 335 334 335 334 335 335 335 335 333 332 332 333 333 334 335
310 310 310 309 309 310 312 312 312 311 310 312 311 307 308 311 312 313 313 313 313 313 314 314 317 318 317 319 319 318 323 324 322 321 320 322 322 322 329 334 338 339 341 339 335 336 337 337 338 337 339 340 340 341 341 340 341 342 343 342 342 342 342 340 341 341 341 341 340 340 339 340 339 338 338 338 337 337 338 338 337 337 336 335 335 335 335 335 335 335 333 332 332 332 334 334 334
310 310 310 310 308 308 312 312 311 311 310 312 311 306 308 312 312 313 313 313 314 314 313 315 316 317 316 317 317 317 321 323 321 318 317 318 318 319 325 332 337 336 339 339 336 335 334 335 336 337 339 340 341 341 341 340 339 340 342 342 342 342 343 342 341 342 341 341 341 341 340 340 339 338 338 338 338 338 338 338 337 336 336 335 335 334 335 336 335 335 333 333 333 332 334 334 334
311 309 308 309 308 308 312 312 311 311 311 312 311 307 309 313 312 312 313 314 315 314 313 314 315 316 316 317 317 316 318 319 317 316 318 319 318 322 324 327 335 337 338 338 337 336 335 335 336 337 339 340 341 341 341 340 339 339 339 340 341 343 343 343 342 342 342 341 341 341 341 340 340 339 339 338 338 339 338 338 337 336 336 336 336 335 334 335 335 335 334 334 333 333 334 334 334
311 309 306 308 308 308 311 311 313 312 311 311 310 308 310 312 313 313 315 315 314 313 314 314 314 315 315 316 318 317 318 317 315 318 322 322 319 321 322 325 335 338 337 337 337 337 337 338 338 338 339 341 341 341 341 340 339 338 338 338 339 341 343 343 342 342 342 341 341 341 341 341 341 339 339 338 339 340 339 339 338 337 336 335 335 335 334 335 335 335 335 334 333 332 332 333 334
315 311 308 309 309 308 308 309 312 312 311 311 310 310 310 312 313 314 316 315 314 313 314 314 313 314 314 315 316 315 317 317 316 320 322 321 319 321 322 326 334 336 336 338 337 334 335 337 338 338 339 341 340 341 341 341 338 336 336 336 337 339 341 343 342 342 342 341 341 342 342 341 340 339 339 339 339 340 340 339 338 338 337 334 335 335 334 334 334 334 335 335 334 333 332 332 334
315 313 310 311 310 308 308 309 311 312 311 310 310 310 310 311 312 313 314 314 314 313 313 315 314 315 315 315 315 314 315 316 317 319 321 320 319 322 324 326 333 336 337 339 336 330 330 332 335 337 339 340 340 340 341 341 338 336 336 336 336 337 337 339 341 341 341 341 341 341 342 342 341 340 340 340 339 340 340 339 339 338 337 335 334 335 334 333 334 334 335 335 335 334 332 332 333
313 312 310 309 309 309 309 310 312 312 312 311 311 311 310 311 311 312 313 313 314 314 315 317 317 317 316 315 315 316 316 317 317 318 320 321 321 324 325 327 334 339 339 338 338 335 332 332 334 337 338 339 340 340 341 341 339 338 336 335 335 337 336 336 337 339 341 341 341 341 342 342 341 341 340 340 339 339 340 340 339 338 337 337 336 336 334 333 333 334 334 334 335 334 333 332 333
312 312 311 309 308 309 312 313 313 312 312 312 312 312 311 311 312 313 313 314 314 314 316 317 317 316 316 316 317 319 319 320 320 319 321 322 322 324 325 324 329 338 341 338 339 339 335 332 334 337 338 339 339 340 341 341 339 338 335 333 334 335 336 336 336 336 337 340 341 341 342 342 342 342 341 341 340 339 339 339 339 338 338 338 337 336 335 333 332 334 335 334 335 335 333 333 333
314 312 311 310 310 311 314 315 315 315 313 313 314 314 314 313 313 314 314 315 316 315 316 316 316 315 316 318 318 319 319 320 320 320 320 321 322 323 324 324 323 330 340 340 339 340 337 334 334 336 337 338 339 340 341 340 339 337 334 330 330 333 334 336 336 336 335 337 339 340 342 342 341 341 341 341 340 340 339 340 339 339 339 338 337 337 336 335 333 334 335 334 335 335 334 334 333
314 314 312 314 315 313 316 318 315 316 315 314 316 314 314 316 317 318 317 316 316 315 316 316 316 317 317 318 318 318 319 319 319 320 320 320 322 322 323 325 323 323 331 337 340 341 339 338 337 337 337 337 339 340 340 340 339 337 335 330 329 333 335 335 336 336 336 336 337 339 341 342 341 341 341 341 341 340 339 340 340 339 339 339 338 337 336 336 334 334 335 334 335 335 334 334 333
316 316 315 318 320 315 317 318 316 317 316 315 317 316 317 319 317 318 318 316 316 315 316 316 316 317 317 317 318 318 318 319 319 320 321 321 322 323 323 324 324 322 324 330 339 343 342 341 341 340 339 338 339 340 340 340 339 338 336 335 334 334 336 336 336 336 335 335 335 337 339 340 341 341 340 341 342 341 340 340 340 340 339 340 339 339 337 336 334 334 335 335 335 335 335 335 334
317 319 317 318 318 315 316 318 316 316 317 317 317 318 322 322 317 317 317 315 317 316 316 316 316 316 317 317 317 318 318 319 319 319 321 322 322 323 323 323 324 324 323 324 331 338 342 343 342 342 341 340 341 341 340 341 341 340 338 337 337 336 336 336 336 336 335 335 334 335 336 338 340 341 340 340 341 341 340 339 340 340 340 340 340 340 339 337 335 335 336 335 335 335 335 334 334
316 318 317 317 317 316 316 316 315 315 317 319 317 319 325 324 316 316 318 316 316 316 315 316 316 316 316 317 317 318 319 319 319 319 319 321 322 322 323 323 323 324 326 324 323 328 336 341 342 342 342 342 341 341 341 341 341 341 339 338 338 337 336 336 336 335 335 335 334 334 336 336 337 339 340 339 339 340 339 339 340 340 340 340 340 340 340 339 337 336 335 335 334 334 334 333 334
315 317 317 317 317 316 315 315 314 315 318 319 316 318 325 325 318 316 319 317 316 316 316 316 316 317 317 317 317 318 318 318 318 319 319 320 321 322 323 322 322 324 325 325 324 325 329 334 338 340 341 342 342 341 341 341 340 340 339 339 338 338 337 336 336 336 335 334 334 335 337 337 337 338 338 338 338 338 339 338 339 340 340 339 340 340 340 340 339 337 335 334 334 333 333 333 334
314 317 316 316 316 315 316 315 314 316 319 320 319 320 322 321 318 317 317 317 317 317 317 317 317 317 318 317 317 317 317 317 318 319 319 320 321 321 322 322 322 323 324 324 325 325 326 328 333 337 338 339 341 340 339 340 340 340 339 338 339 339 338 338 337 337 336 335 335 336 337 337 337 337 338 338 337 337 337 337 338 340 340 339 339 339 339 339 339 338 337 335 334 333 333 333 334
315 316 316 317 316 316 316 315 314 317 318 320 322 322 321 319 318 317 317 317 318 318 317 318 317 317 317 317 317 317 317 317 317 318 319 320 321 320 320 321 321 322 323 324 324 325 325 325 329 334 336 338 340 339 338 338 339 339 338 337 338 339 338 338 337 337 337 336 336 337 337 337 337 338 338 338 337 336 336 337 337 339 339 339 339 338 338 338 339 339 338 336 335 334 333 333 333
316 316 316 317 317 318 317 315 316 317 317 319 320 317 320 321 318 316 318 318 318 318 318 317 317 316 317 317 317 316 316 317 316 317 318 319 320 320 319 320 320 321 322 323 324 324 325 324 325 329 333 337 338 336 335 337 338 337 336 335 335 336 338 338 337 337 337 337 337 337 338 338 338 338 338 338 337 336 337 337 337 338 338 339 338 337 337 338 339 339 338 337 336 335 333 332 333
316 316 316 317 319 320 320 318 318 319 319 320 318 312 317 320 319 316 317 317 317 318 317 317 317 316 316 317 317 316 316 316 315 316 317 317 318 319 319 319 319 320 321 321 323 323 324 324 324 325 328 335 336 333 333 334 335 337 336 334 332 333 337 338 337 337 337 337 337 337 337 338 338 337 337 337 338 337 337 337 337 337 337 338 338 338 337 338 339 339 338 338 336 335 335 333 332
317 317 314 318 321 322 323 321 320 321 321 318 314 311 316 319 319 317 316 317 316 317 317 316 316 316 316 316 316 315 315 315 315 315 316 317 318 318 319 319 319 319 320 320 321 322 323 324 324 324 324 330 335 335 334 335 334 335 335 334 332 333 336 338 337 337 336 337 337 336 336 337 337 337 336 337 338 338 338 337 337 337 338 338 338 338 337 337 339 339 339 339 338 336 336 335 333
317 315 313 319 323 322 322 321 320 321 318 313 312 315 318 319 318 317 316 317 316 316 316 316 316 316 316 316 315 315 315 315 315 316 316 317 318 318 318 318 319 319 319 320 320 320 322 323 324 325 323 327 334 334 335 336 335 334 335 334 333 332 335 337 337 337 336 336 336 335 335 336 336 336 336 337 339 338 338 338 338 337 337 338 338 338 338 338 338 339 339 339 338 337 337 337 335
316 314 313 317 321 321 320 319 319 319 316 313 313 317 318 318 318 316 316 316 315 316 316 315 316 316 316 315 315 316 316 316 316 316 316 317 318 318 318 317 318 319 319 319 319 320 321 322 323 324 324 325 330 333 333 334 335 336 335 334 333 332 332 332 333 336 337 336 336 336 336 336 336 337 337 338 339 339 338 338 338 338 337 338 338 338 338 338 339 339 339 339 338 338 337 337 337
316 315 315 315 316 319 319 318 318 318 317 315 314 317 319 320 320 317 315 315 315 315 315 315 316 315 315 315 315 316 316 316 316 316 316 316 317 317 318 318 317 318 319 318 319 319 319 320 321 323 324 323 325 330 332 333 335 336 336 334 332 332 333 331 330 334 336 336 337 338 338 338 337 338 339 340 341 340 339 338 339 338 337 338 339 339 339 339 339 339 339 338 338 338 337 337 337
317 315 317 316 315 318 318 318 317 317 317 317 316 318 319 319 319 315 314 315 313 313 314 314 315 314 315 315 315 316 315 315 315 315 315 316 316 317 317 318 317 317 318 318 319 319 318 319 320 321 323 323 324 325 328 331 333 335 336 335 333 334 335 333 330 332 335 336 335 336 339 340 339 341 341 341 341 341 340 339 339 339 338 338 339 339 339 338 338 338 338 338 337 338 338 337 337
317 316 316 316 316 317 317 319 318 317 318 318 317 318 317 318 318 315 313 314 312 312 313 313 315 315 315 315 315 315 315 315 315 315 315 315 315 316 316 317 317 317 318 318 318 318 317 318 318 319 321 322 323 324 325 327 330 332 335 337 337 337 336 334 334 335 336 337 335 333 337 340 341 342 341 339 339 340 341 340 338 338 338 338 339 339 339 338 338 338 337 338 337 338 338 337 337
315 316 315 315 317 318 317 317 318 318 319 316 316 319 319 318 318 315 312 313 311 312 312 313 314 315 315 315 315 315 315 315 315 314 315 315 314 315 315 315 316 316 317 317 317 318 317 317 317 318 320 321 321 323 323 325 327 330 332 335 337 338 337 336 336 336 336 338 337 334 337 341 341 341 339 338 337 338 340 339 337 337 338 338 337 338 338 338 338 337 337 337 337 338 338 337 337
314 316 315 316 318 318 318 317 317 318 318 316 314 317 318 317 316 314 312 312 312 311 312 312 313 314 315 315 315 315 314 314 314 314 313 314 313 313 314 314 314 315 316 316 317 317 317 316 316 318 320 319 319 321 323 323 325 329 331 333 336 338 338 338 338 336 337 338 338 337 338 340 340 340 339 337 336 336 338 338 337 337 338 338 337 336 336 337 337 336 336 337 337 338 338 337 337
315 316 315 316 317 317 317 317 316 317 317 316 313 314 317 316 314 313 312 311 311 311 311 312 313 313 314 315 315 314 314 314 314 313 312 312 312 312 313 313 314 314 315 316 316 317 317 316 316 318 319 318 318 319 320 322 323 326 329 333 336 338 339 339 339 338 338 338 338 338 338 339 340 339 339 339 338 337 337 337 337 338 339 339 338 337 336 336 336 336 336 336 336 337 337 337 337
317 317 315 316 316 315 316 317 315 315 315 315 314 314 316 316 312 312 312 311 311 311 310 312 313 313 313 314 315 314 313 313 313 312 311 311 311 311 311 312 313 314 315 315 316 316 317 317 317 317 318 318 318 319 318 319 321 323 326 329 333 337 339 339 339 338 338 338 337 338 337 338 340 340 339 339 339 338 338 337 338 339 339 339 338 337 336 336 336 336 336 336 336 336 337 337 337
317 317 315 316 315 315 316 316 314 314 314 314 314 314 315 315 312 312 312 311 311 310 310 311 312 313 314 314 314 314 313 313 313 312 311 311 311 310 310 311 312 313 313 314 315 316 317 317 317 317 318 318 318 318 318 319 320 320 321 324 327 332 337 339 339 339 339 338 337 337 337 337 339 340 339 338 338 339 338 337 338 338 338 339 338 337 337 337 336 336 336 336 335 336 337 337 337
Wind_Speed
1 3 5 6 6 8 9 6 5 4 5 7 9 9 11 13 12 13 10 10 7 5 6 5 6 2 2 3 2 4 4 7 6 4 2 7 11 14 12 12 17 19 19 20 24 23 19 18 19 20 20 22 22 22 21 20 19 18 19 20 20 20 21 21 21 21 21 20 19 17 15 17 20 21 20 20 19 18 17 16 16 16 16 16 16 16 16 16 16 16 16 16 16 16 16 16 16
1 6 7 8 10 9 5 4 6 6 7 8 10 9 11 12 12 15 11 10 6 3 3 5 10 6 2 5 2 4 5 11 10 8 5 12 14 11 12 14 18 20 21 20 25 24 19 19 20 21 21 22 23 22 21 20 19 19 19 19 19 20 21 21 21 20 20 20 19 17 15 18 21 20 20 20 18 17 16 15 15 15 15 15 16 16 16 15 15 15 15 16 16 15 15 16 16
5 8 10 9 10 9 5 5 7 7 8 9 9 10 12 11 12 13 9 9 5 4 4 4 10 5 6 8 2 4 5 10 11 10 6 12 11 8 11 15 18 21 20 19 24 24 20 19 21 23 23 24 23 23 22 21 20 19 19 19 20 19 21 21 21 20 20 20 19 17 16 19 21 20 20 19 18 16 15 15 14 14 14 15 15 15 15 15 15 15 15 15 15 15 15 15 15
7 8 12 10 7 7 6 6 7 8 9 9 8 11 13 12 11 11 12 10 2 2 1 5 6 2 6 5 2 2 5 9 10 10 6 10 11 10 9 13 18 18 18 19 22 21 20 21 23 24 24 25 24 24 23 22 20 20 20 19 19 19 21 21 21 20 20 19 19 17 18 20 21 20 19 18 17 16 15 14 14 14 14 14 14 14 15 14 14 14 14 14 14 14 14 15 15
9 10 13 11 6 5 6 6 7 9 9 9 8 11 12 12 11 10 12 8 2 1 4 7 7 4 4 5 2 2 6 8 10 11 10 13 14 12 9 13 17 14 15 17 20 18 20 23 24 24 25 26 25 24 23 22 21 21 20 20 20 19 20 21 21 20 20 19 18 18 19 19 20 20 19 17 16 15 14 14 13 14 13 13 13 14 14 14 13 13 13 13 13 14 14 14 15
11 12 13 11 7 6 6 7 8 9 11 11 10 11 10 11 14 11 8 4 3 3 5 8 9 7 2 1 1 4 7 7 8 10 12 15 14 13 11 15 17 13 13 15 18 17 20 23 24 25 25 26 25 25 24 23 22 22 21 21 20 20 20 21 21 20 20 19 19 19 19 18 19 21 19 17 16 15 14 14 13 13 13 13 13 14 13 13 13 12 12 12 13 14 14 14 15
11 9 9 9 6 5 8 9 10 10 11 14 13 13 12 11 14 12 10 8 6 5 6 7 7 9 4 1 2 7 10 10 8 11 14 15 15 14 11 12 15 13 14 17 18 16 20 25 25 25 26 26 26 25 24 23 23 23 22 22 21 21 21 21 21 20 20 20 20 20 19 18 19 20 19 17 16 14 14 13 13 12 12 12 13 13 12 12 12 12 11 11 13 14 14 14 14
13 8 5 7 6 5 8 10 11 11 12 16 16 16 14 13 13 11 11 10 5 5 7 7 5 8 6 6 1 9 15 13 10 14 17 17 17 15 13 11 11 11 14 18 20 18 22 26 26 26 26 26 26 25 25 24 24 23 23 22 22 22 22 22 21 21 20 20 21 21 20 18 19 19 19 18 16 14 14 13 13 12 12 12 12 12 12 12 12 11 10 11 12 13 13 14 13
13 8 5 7 7 7 9 10 12 13 14 16 17 18 17 15 13 12 12 11 9 4 8 8 6 6 6 9 1 12 13 14 15 20 22 22 20 18 15 9 7 9 12 15 19 20 22 27 27 26 27 27 26 25 25 24 24 23 23 23 23 23 22 22 22 21 20 20 21 21 20 18 19 19 19 17 16 15 14 14 13 12 12 11 11 11 11 11 11 10 10 10 11 13 13 13 13
9 8 6 6 7 9 10 10 11 12 15 16 16 17 16 16 14 13 11 10 11 8 10 11 8 7 9 11 2 10 11 15 18 23 24 24 23 21 18 10 7 9 11 10 16 20 22 27 26 26 27 26 26 26 26 24 24 24 23 23 23 24 23 22 22 21 20 19 20 21 21 19 19 19 19 17 16 14 13 13 13 12 11 11 10 10 11 11 11 11 10 10 10 11 12 13 13
6 6 7 7 8 9 10 10 11 11 14 14 15 15 13 14 15 14 10 10 11 10 12 10 10 9 9 10 2 11 14 14 16 22 23 25 24 21 19 15 10 9 10 9 16 21 23 26 24 26 26 26 26 25 26 24 25 25 24 24 24 24 23 23 22 21 20 19 21 21 21 19 19 20 19 17 15 14 13 13 12 12 11 10 9 9 10 11 11 11 10 10 10 11 11 12 12
7 7 7 8 9 9 10 11 11 12 14 14 14 13 10 11 16 13 8 11 11 12 13 9 11 9 6 7 3 11 14 15 19 22 21 25 25 21 20 18 15 9 9 11 17 22 24 24 21 24 25 26 26 25 26 24 25 25 24 24 24 25 24 23 22 21 20 20 21 21 21 19 19 20 19 17 15 14 13 12 12 11 10 9 8 9 9 10 10 11 10 10 10 10 10 11 11
7 8 7 8 8 9 11 11 12 12 12 12 11 13 10 11 15 10 6 11 10 12 14 8 10 11 8 6 6 9 12 18 23 25 23 25 23 22 20 16 19 14 12 15 17 23 27 25 20 22 24 25 26 25 26 25 26 25 24 24 24 25 24 23 22 21 20 20 22 21 21 19 18 20 20 17 15 14 13 12 11 10 10 8 8 8 8 8 9 10 10 10 10 10 10 10 10
8 7 7 8 8 10 11 10 11 11 10 10 12 12 12 10 7 4 5 11 10 9 11 8 10 10 9 7 6 9 10 16 21 26 26 25 21 21 19 15 21 19 17 18 18 21 24 24 21 20 22 24 24 25 25 25 26 25 24 24 24 25 24 23 22 21 21 21 22 22 20 19 19 20 20 18 16 14 13 12 11 10 9 8 8 8 8 7 8 10 10 10 10 10 10 10 10
8 6 7 7 9 10 10 10 11 12 9 10 14 8 9 10 4 2 6 9 9 8 10 9 7 7 9 7 6 11 15 17 18 25 25 23 20 18 18 15 19 17 15 16 15 18 19 19 20 20 21 22 23 24 25 26 26 25 25 25 25 25 24 23 22 22 21 21 22 22 21 20 18 19 20 18 16 15 13 13 11 10 9 8 7 7 7 7 7 9 10 10 10 10 10 10 11
7 6 7 7 9 10 9 11 11 11 8 10 15 8 6 9 3 2 6 6 8 9 10 9 5 5 9 3 14 18 19 20 17 23 25 21 18 16 17 15 17 15 13 13 12 15 17 17 19 20 21 22 22 22 24 25 25 27 26 25 25 24 24 23 22 22 21 22 22 22 21 20 18 18 19 18 17 15 14 13 12 10 9 8 7 7 8 7 7 9 10 10 11 10 10 11 11
6 6 7 7 9 10 9 10 10 9 10 12 8 8 5 4 3 1 5 7 9 10 10 10 10 7 7 3 16 24 20 19 19 22 23 17 12 11 15 19 20 17 12 11 13 16 20 21 21 21 22 22 22 23 23 23 25 29 28 26 25 24 24 23 23 22 22 23 23 23 21 20 18 17 17 17 17 16 14 14 12 10 9 8 8 8 8 7 7 9 10 11 11 12 12 12 12
6 6 8 8 8 9 10 11 11 8 12 15 2 12 7 5 4 2 4 10 9 9 9 9 15 11 7 11 5 21 23 20 21 24 22 15 10 7 13 21 23 19 16 14 15 19 23 25 25 23 24 24 23 23 23 22 27 30 29 27 26 24 23 23 23 22 22 23 23 24 22 20 18 16 17 16 17 17 15 15 13 11 9 8 8 9 9 8 8 10 10 11 12 12 13 13 13
7 6 7 8 9 10 12 11 10 8 11 16 6 10 6 4 6 7 7 12 9 6 7 7 12 12 10 15 10 9 19 20 19 21 22 19 15 11 12 19 20 18 21 19 14 20 25 25 27 26 25 26 24 24 23 24 28 30 29 29 26 24 22 21 21 21 22 23 23 24 23 21 18 17 17 16 16 17 16 15 13 11 9 8 8 10 11 9 9 10 11 12 12 12 11 10 12
7 7 6 9 10 10 12 7 9 11 10 13 13 9 6 4 4 6 7 11 11 8 7 9 10 10 11 12 11 11 14 18 17 13 16 16 15 15 13 17 19 15 19 19 13 18 25 25 28 28 26 27 26 24 24 26 28 29 29 29 27 26 24 22 22 22 22 23 24 25 24 22 20 18 19 17 16 17 17 16 14 12 11 9 9 11 12 11 11 11 12 13 13 11 9 8 9
7 7 7 11 8 5 9 6 7 11 11 10 11 11 9 7 6 7 7 9 9 9 8 11 14 11 9 8 8 10 8 11 17 10 9 12 12 13 13 17 18 13 15 20 18 18 23 26 28 30 30 29 28 27 26 26 28 28 28 29 29 28 26 25 24 24 24 24 25 26 24 22 21 19 19 19 17 18 19 18 16 14 12 10 11 13 14 13 13 13 13 13 12 9 9 11 11
6 8 7 13 12 7 9 8 7 6 10 11 11 10 10 9 9 9 10 10 7 9 10 10 11 10 9 8 7 2 5 6 11 9 8 10 10 10 12 17 18 16 18 24 27 23 24 28 27 31 33 31 30 29 28 28 28 28 28 29 29 29 28 26 25 25 25 25 25 26 25 23 22 21 20 21 19 18 19 20 18 15 14 12 13 14 15 15 14 14 14 12 10 9 9 10 11
4 9 8 12 13 8 7 9 6 5 6 10 11 10 10 10 9 8 10 11 9 11 13 13 11 9 12 12 12 7 9 5 3 4 8 10 11 13 16 19 20 22 24 27 33 32 31 30 26 30 33 33 32 29 28 29 29 28 28 29 29 29 29 28 27 26 26 27 26 25 25 24 24 23 22 22 20 18 20 21 19 16 15 15 15 15 15 16 15 14 13 10 9 11 11 10 10
4 8 11 12 9 6 7 10 7 4 6 8 9 9 10 10 9 8 10 11 11 10 10 12 13 11 11 11 12 8 8 7 6 7 2 5 10 17 20 20 20 23 27 29 31 27 28 29 27 30 32 32 31 28 28 28 29 28 28 29 29 29 30 29 28 28 27 29 27 26 26 25 25 24 25 24 21 20 20 20 19 18 17 17 16 16 16 17 17 16 14 11 10 11 12 10 11
9 10 12 9 5 4 6 9 9 8 7 6 8 9 11 10 9 10 11 11 7 5 7 9 10 9 7 7 9 8 7 5 4 9 10 6 11 22 19 17 16 21 24 22 17 13 15 17 21 25 28 31 31 28 26 27 27 27 28 28 27 29 30 28 28 28 29 30 28 27 27 26 25 24 26 25 23 22 20 20 21 20 19 18 19 19 19 17 18 18 16 14 13 13 13 11 11
6 9 10 5 4 5 6 8 9 8 6 6 9 10 11 10 10 9 11 13 9 6 9 9 8 7 7 6 7 8 8 6 5 7 12 11 14 26 17 11 13 18 16 14 16 18 20 17 17 17 18 22 27 27 26 25 26 26 26 27 26 28 28 27 28 28 28 29 29 29 27 28 26 24 26 26 23 23 22 21 21 22 21 19 19 20 20 17 17 18 16 15 14 13 13 12 11
6 8 9 8 8 8 8 9 9 7 6 9 10 11 11 9 8 7 10 12 10 9 8 5 6 5 4 5 6 7 7 7 10 10 11 11 8 22 16 9 13 14 13 17 24 27 29 27 22 19 18 16 16 20 26 25 24 24 24 24 25 27 27 27 27 27 29 29 30 29 27 28 28 23 25 26 23 23 23 23 23 22 21 21 20 20 19 18 16 16 15 13 13 14 13 12 12
7 8 10 10 11 10 10 10 10 7 7 9 10 11 11 11 10 8 11 6 3 4 5 3 6 4 5 6 6 5 6 8 11 9 6 9 6 12 18 12 9 11 14 17 22 29 29 25 23 23 23 21 15 14 20 24 25 24 23 23 23 24 27 28 27 26 28 29 30 30 26 28 28 23 23 26 24 22 22 23 23 22 22 22 20 19 19 18 16 15 15 13 12 14 14 13 12
7 8 9 11 12 11 12 9 8 7 5 4 5 8 9 12 11 11 15 5 7 2 4 4 5 5 5 5 5 4 5 8 9 9 7 9 11 6 13 13 7 11 14 14 16 24 22 14 14 16 17 22 20 15 14 16 23 25 24 24 24 24 26 27 27 26 27 27 30 30 27 27 29 24 23 25 25 23 22 23 23 21 21 21 19 18 19 19 16 15 16 14 11 13 13 13 13
7 8 7 8 10 11 11 8 7 5 2 1 3 6 9 11 15 14 11 2 8 4 4 5 4 3 2 4 5 5 4 5 6 8 10 9 11 13 6 6 10 11 13 13 11 14 16 15 15 17 18 20 22 20 15 12 14 20 25 26 25 27 28 28 27 26 27 27 28 31 28 26 29 27 23 24 25 24 23 24 24 22 19 20 21 19 18 18 17 16 16 15 13 14 13 13 14
6 8 7 7 8 4 10 10 6 4 6 4 7 6 8 4 11 9 5 9 7 4 6 6 4 2 1 3 4 6 5 3 6 8 11 12 11 11 12 5 4 7 7 10 9 3 7 13 15 18 22 22 22 21 20 17 13 13 17 24 28 28 29 30 28 26 28 29 28 30 30 27 28 28 24 24 26 24 24 24 24 23 20 19 21 22 20 18 19 17 16 17 15 15 15 14 14
6 6 5 5 5 4 11 9 6 4 4 3 7 6 6 3 8 5 9 8 4 3 7 6 5 4 3 4 4 6 5 6 10 11 9 9 7 7 10 11 7 3 5 8 8 0 3 9 16 21 24 23 22 20 20 21 17 15 15 14 22 27 29 29 29 28 27 28 28 29 30 28 27 28 25 24 26 24 24 23 23 24 22 20 18 22 23 19 20 19 17 18 17 17 16 16 15
5 5 4 2 3 2 7 7 7 5 1 3 6 6 4 2 5 8 10 6 4 5 6 5 5 5 5 5 3 4 3 5 9 6 6 7 7 11 10 9 14 14 9 8 7 8 10 15 23 26 24 22 22 21 20 20 20 19 18 17 16 18 26 28 27 29 28 27 28 28 30 28 28 28 25 25 25 24 24 23 23 23 23 23 17 19 24 21 19 20 19 19 18 17 16 16 16
2 3 4 4 5 4 1 6 7 5 2 5 7 6 5 3 3 9 11 11 8 6 5 4 5 4 6 4 5 6 4 5 6 4 13 12 10 10 10 11 16 15 11 8 6 7 13 17 22 26 24 22 22 22 22 22 21 21 20 19 20 18 19 25 26 27 27 27 28 28 29 29 29 28 25 25 26 25 24 23 23 23 23 25 20 17 23 23 20 20 19 19 19 18 17 17 18
5 3 3 4 4 5 5 3 5 4 5 5 5 6 7 7 4 5 10 8 5 5 4 4 5 3 6 6 7 9 7 7 5 5 11 10 9 11 13 12 15 14 9 5 2 9 13 12 16 22 24 23 23 23 21 22 22 21 20 20 19 19 18 18 21 26 25 25 26 27 28 28 29 29 25 25 27 26 24 23 24 24 23 25 23 20 21 23 23 20 19 20 20 20 18 17 19
8 6 5 6 4 5 7 1 5 5 4 5 6 7 8 10 8 9 10 4 1 6 4 4 5 4 6 7 7 7 8 9 5 5 10 17 15 14 16 14 11 12 7 2 4 10 13 12 13 18 22 23 24 23 23 22 22 22 20 19 18 16 17 16 13 17 22 24 25 25 28 29 27 28 26 25 27 27 25 24 25 25 25 25 24 24 24 25 26 22 21 22 20 20 19 16 20
9 8 6 8 8 6 6 7 6 5 1 5 8 9 10 11 9 8 8 8 7 8 6 5 5 5 5 5 7 10 9 10 14 14 18 25 23 21 22 19 14 9 5 2 1 7 12 12 14 17 19 22 24 25 26 26 26 25 23 22 19 15 16 15 15 15 14 16 23 25 27 29 28 28 27 26 28 28 25 25 26 26 26 26 24 25 26 26 26 23 22 24 21 19 20 17 19
8 8 7 8 7 3 6 11 8 2 1 5 7 10 10 9 8 7 6 7 7 6 3 3 5 6 7 11 14 15 12 12 16 17 20 23 22 22 22 19 19 13 3 2 3 2 8 11 13 15 17 20 23 25 26 28 30 29 28 28 24 19 21 20 15 15 15 13 13 21 26 28 28 28 28 27 28 29 27 25 27 27 27 27 25 24 25 25 24 23 22 25 21 20 22 18 18
8 7 8 5 4 5 7 11 12 4 2 5 7 10 8 7 8 10 7 4 5 6 8 10 11 10 10 12 12 12 12 11 12 13 16 18 19 20 19 17 18 17 10 2 1 2 6 9 11 13 15 19 21 22 25 28 31 30 26 27 27 23 23 21 18 19 17 14 13 13 20 27 27 27 28 28 28 29 30 26 25 28 28 27 26 25 26 25 24 23 23 25 21 19 22 20 19
7 4 5 3 4 5 3 6 8 6 5 5 7 6 6 10 12 12 8 6 10 11 14 13 12 11 12 12 12 12 12 12 11 11 11 14 17 18 17 17 15 15 16 8 1 4 6 8 10 12 14 18 20 22 24 25 27 28 24 22 26 25 22 21 18 17 17 17 16 14 13 22 26 26 26 28 28 29 30 27 24 28 29 27 27 27 27 27 26 24 23 26 23 19 21 21 19
4 6 7 6 4 5 4 4 5 7 6 4 8 6 5 10 11 9 7 8 11 11 12 11 10 10 10 10 11 11 11 10 10 10 9 9 13 16 16 17 15 12 15 16 9 5 7 10 11 12 15 18 19 21 24 23 23 25 24 19 20 22 21 21 21 19 18 20 23 20 17 19 23 26 27 27 28 28 30 29 25 27 30 28 28 28 27 28 27 25 24 25 25 22 21 20 19
5 5 7 11 10 9 8 8 6 6 3 5 6 2 3 6 5 5 3 6 8 9 11 10 10 10 9 9 10 11 11 11 10 9 9 8 9 12 14 15 15 13 13 17 17 12 8 10 13 14 16 19 20 20 22 23 22 23 24 20 18 19 21 24 25 26 26 25 26 26 23 21 22 23 26 26 27 28 29 30 27 26 30 30 28 27 27 27 26 26 26 26 27 26 22 20 19
3 3 7 11 11 10 10 9 7 5 2 2 2 3 1 4 4 6 3 6 7 8 10 10 9 9 10 9 10 10 10 10 11 9 9 9 8 10 12 13 14 13 12 14 16 16 14 10 11 15 17 20 22 22 22 24 24 24 25 24 20 18 18 23 27 28 28 28 27 27 26 25 24 23 24 26 28 28 29 31 29 26 28 30 29 27 26 27 27 26 27 27 28 27 24 21 19
3 3 8 9 10 10 9 7 6 2 3 2 2 4 3 2 2 5 6 6 7 8 8 8 8 9 9 9 9 10 11 11 11 10 9 9 8 9 11 12 13 14 13 13 14 15 16 15 12 12 16 19 23 24 23 23 26 26 25 24 21 20 20 20 24 26 26 28 29 28 28 28 27 26 27 28 29 28 29 31 30 26 27 28 29 29 27 27 27 27 28 28 28 28 26 24 20
4 4 7 7 8 9 7 6 5 1 3 0 4 6 4 3 2 2 6 7 7 8 8 8 10 11 10 9 10 11 12 12 12 12 11 11 12 12 13 13 13 13 14 13 13 14 14 16 16 12 12 18 22 24 22 21 24 25 23 22 21 20 21 19 20 22 23 26 28 28 28 28 27 28 29 30 30 28 29 31 31 29 28 28 29 30 28 26 27 28 28 29 29 27 27 26 21
6 7 9 8 8 9 6 4 3 1 1 3 3 4 6 3 1 2 4 6 7 7 7 9 11 11 11 10 11 12 12 12 13 14 14 17 19 19 18 16 13 13 14 14 14 14 14 15 15 16 13 14 18 20 20 21 23 24 23 22 23 22 20 18 18 19 20 22 25 28 29 29 28 29 30 32 32 30 30 30 30 31 29 28 29 30 29 27 28 28 28 29 29 27 26 28 25
10 11 11 6 2 6 5 3 4 2 2 3 3 3 4 3 2 3 3 5 7 7 7 9 11 11 11 10 10 11 11 10 12 13 15 19 23 23 22 19 15 14 14 14 15 15 15 15 15 16 16 12 15 17 18 23 25 25 23 20 22 24 23 22 22 21 21 22 24 28 30 30 30 31 32 33 33 31 30 30 31 31 30 29 28 29 30 28 29 30 28 27 29 28 26 27 28
10 7 6 1 4 6 4 3 4 2 0 1 1 4 5 3 3 4 4 6 7 8 8 10 11 11 11 10 10 11 11 11 12 11 12 15 16 18 21 22 19 16 15 15 15 16 16 15 15 15 18 12 12 16 17 22 23 22 22 20 22 26 28 28 28 28 28 27 27 27 27 29 31 31 32 33 34 33 30 30 32 32 31 31 30 28 29 28 26 28 28 27 28 29 26 24 26
7 5 6 2 3 2 1 0 0 1 1 4 4 5 6 5 5 5 6 8 9 8 9 10 11 12 11 10 11 11 11 12 13 12 12 11 12 14 17 20 21 19 16 16 15 15 15 15 15 15 18 14 7 14 17 20 21 21 23 25 27 30 30 27 27 28 29 29 30 28 26 27 30 32 34 35 35 36 34 31 33 35 33 32 31 27 28 28 25 25 26 25 26 27 26 22 22
6 5 5 3 1 2 2 1 1 2 1 4 6 4 4 6 4 6 8 8 9 9 9 11 11 11 11 11 11 11 11 11 10 11 12 11 14 18 19 17 19 20 18 17 16 16 16 15 16 15 16 17 9 11 19 22 24 24 25 27 28 27 22 20 23 26 27 26 27 28 28 30 30 32 37 39 37 36 36 32 30 34 34 31 31 28 26 26 25 23 22 22 22 22 23 21 20
5 5 4 4 3 3 4 3 3 3 2 4 5 2 3 3 2 4 8 7 9 10 9 10 10 9 9 9 10 10 11 11 10 11 12 13 15 20 22 20 20 21 20 18 17 17 16 17 17 16 15 16 15 12 15 20 23 25 27 27 28 28 24 22 25 28 28 27 27 28 30 32 32 33 36 38 37 35 37 35 30 33 35 32 30 30 28 27 26 26 26 26 25 24 25 24 23
4 4 3 4 5 4 3 2 3 4 3 2 2 3 5 4 3 2 5 6 8 9 10 10 10 10 10 9 9 10 10 10 11 12 12 15 18 18 20 21 21 23 22 19 19 17 16 19 19 16 15 15 15 16 16 17 19 22 25 25 26 30 30 29 29 29 29 28 30 31 31 32 33 33 34 35 34 32 33 32 27 26 30 32 32 33 33 32 33 36 38 38 37 34 33 32 30
5 4 3 4 4 5 3 1 1 1 1 1 2 4 5 5 2 1 4 8 9 8 9 11 11 12 11 10 9 10 11 11 12 12 12 15 19 20 19 19 20 22 23 22 21 19 18 20 20 18 16 14 14 15 17 18 19 21 22 22 24 27 29 30 31 31 30 29 31 32 31 31 32 33 33 32 30 29 29 29 24 20 23 30 32 34 36 35 34 37 39 39 37 35 34 35 34
5 3 4 2 2 2 3 2 1 2 2 2 4 5 2 2 1 3 5 10 10 9 10 10 11 11 11 11 11 12 12 12 12 13 13 14 17 20 21 21 21 22 23 23 23 21 21 20 20 21 17 13 13 15 16 18 18 20 22 23 23 24 25 28 30 30 28 27 29 30 29 30 31 31 31 30 28 28 28 27 26 23 23 25 24 26 32 35 33 33 35 35 35 33 32 32 32
4 3 2 2 2 2 3 3 3 3 3 3 2 6 3 2 2 5 8 10 10 11 9 9 10 11 10 10 11 12 11 11 12 12 12 13 17 21 23 24 24 22 22 24 23 21 21 21 20 19 15 13 16 16 15 17 17 18 21 23 24 24 24 26 29 30 28 26 26 28 28 29 29 29 28 28 27 27 25 21 20 24 25 24 22 23 28 31 31 31 32 34 35 34 32 31 32
3 2 2 3 2 3 3 3 2 3 3 4 3 1 2 4 5 8 11 10 10 11 9 8 10 11 11 10 11 11 11 11 11 12 12 14 19 24 26 27 25 22 22 24 24 21 20 21 20 17 15 15 17 17 16 17 18 18 19 21 23 24 25 26 28 30 30 29 28 27 27 27 28 29 28 27 26 23 23 23 21 25 29 28 26 29 32 32 31 31 31 33 35 34 33 32 32
3 2 3 4 3 2 2 2 1 3 4 3 5 3 2 3 4 8 11 10 11 12 11 9 8 9 10 10 11 11 11 11 12 12 13 15 20 26 28 28 26 23 21 23 24 22 19 20 18 16 16 18 18 17 17 17 17 17 17 19 21 23 25 26 28 30 31 31 30 28 27 25 25 28 29 28 26 21 21 25 24 26 31 32 29 30 33 35 34 33 32 33 35 35 35 33 32
4 3 3 3 3 3 3 2 1 4 4 3 5 4 3 3 5 6 8 10 10 12 13 10 6 7 9 9 10 11 10 11 12 13 14 15 20 26 28 26 24 23 22 22 23 23 19 18 18 16 17 18 17 18 19 18 17 18 19 18 19 20 22 24 25 27 29 31 32 32 30 26 24 25 28 30 29 25 24 25 26 26 29 32 30 28 30 35 36 34 32 33 36 36 35 34 34
Wind_Direction
304 254 219 216 227 255 253 237 257 243 241 254 252 251 251 253 252 254 245 236 229 234 281 329 299 339 39 298 340 319 10 37 38 44 63 129 154 163 155 135 143 145 139 157 167 168 171 172 169 164 166 168 168 168 164 163 163 160 155 152 152 152 151 150 150 147 145 143 141 136 126 122 123 123 120 115 111 108 107 106 104 103 101 99 97 96 96 94 93 93 95 94 94 95 98 98 99
275 275 250 236 242 252 263 233 249 255 243 252 251 250 258 257 250 255 247 238 228 185 273 294 279 327 349 253 272 289 54 63 74 87 95 124 143 156 147 143 144 142 142 158 167 168 168 170 172 166 166 170 170 169 167 165 165 163 157 155 154 154 154 153 153 151 148 147 144 139 129 126 127 126 121 116 112 110 109 107 106 104 102 100 98 97 96 95 93 94 96 98 97 96 97 99 100
245 265 257 236 236 241 257 254 249 255 251 256 256 258 262 259 254 263 267 259 256 156 147 249 267 314 281 255 305 308 95 91 92 98 111 127 136 147 146 145 142 142 145 159 165 166 168 171 174 168 167 171 171 171 169 167 167 165 160 157 156 156 157 156 155 154 152 150 147 141 133 131 130 127 122 117 114 113 111 109 108 106 104 101 99 99 98 96 95 94 96 98 99 98 98 99 103
251 259 261 246 235 232 238 247 247 253 252 255 258 257 258 261 261 267 267 259 273 78 179 257 270 310 287 282 36 308 113 98 93 104 122 125 131 144 149 146 142 141 141 153 156 162 174 175 175 170 170 172 172 172 170 169 169 167 164 160 158 158 159 158 158 156 155 153 148 143 138 135 132 129 124 119 117 116 114 113 111 108 104 101 100 100 100 100 97 96 96 97 100 100 99 100 104
260 264 263 255 254 249 245 244 242 248 252 259 262 258 259 267 265 257 261 251 130 34 274 276 279 255 293 329 326 187 128 104 100 111 119 120 131 141 143 145 144 144 139 148 151 161 180 177 174 172 170 172 172 173 172 171 170 169 167 163 161 160 161 160 160 160 158 155 149 146 142 137 133 132 127 123 121 119 118 116 112 109 105 102 101 100 100 101 101 100 98 97 99 100 100 101 106
255 262 256 247 264 284 270 257 250 248 249 257 264 267 266 270 272 278 297 298 206 219 247 257 276 275 259 261 244 125 138 138 113 105 117 121 127 133 133 136 137 145 144 150 157 166 185 180 175 173 170 171 172 173 173 172 171 171 170 167 164 161 162 162 162 161 160 156 151 149 145 138 135 135 132 128 125 123 122 118 114 110 106 104 102 99 99 101 104 103 102 100 99 100 101 104 107
245 253 245 231 248 268 260 258 257 257 253 254 258 265 267 265 271 281 294 289 241 207 235 244 262 283 291 225 114 98 112 126 118 100 114 119 119 130 136 136 137 148 151 158 166 175 190 182 176 175 170 170 171 173 173 172 172 173 172 169 167 164 163 163 163 162 160 156 151 150 146 140 138 138 137 133 130 128 125 121 118 113 108 106 102 101 101 102 105 106 108 105 101 100 101 105 107
241 251 254 236 239 233 244 251 253 258 260 263 268 273 274 269 270 269 264 268 255 199 240 244 232 262 275 273 221 104 101 109 109 96 109 116 116 126 129 134 138 147 158 166 172 180 188 180 177 175 171 171 170 172 173 173 173 173 173 170 168 166 165 164 164 163 161 157 151 150 148 143 141 142 142 139 136 133 129 126 122 117 112 108 106 104 103 103 106 109 111 109 103 102 102 105 107
234 239 256 252 247 241 245 250 250 252 254 261 267 271 274 270 266 265 259 253 254 237 249 248 235 254 268 268 172 107 108 113 106 94 102 108 112 120 116 125 138 150 166 174 178 182 184 178 177 174 172 171 170 171 172 173 174 174 173 172 170 167 166 165 164 165 162 158 153 151 149 146 145 146 146 144 142 141 136 131 127 122 117 113 111 108 107 107 108 111 112 111 105 103 103 105 107
226 226 240 249 249 249 249 251 253 255 254 254 254 260 267 268 262 259 259 251 251 243 249 263 262 270 288 287 45 104 116 118 111 102 108 116 126 132 120 125 147 158 176 186 181 181 181 178 176 173 171 170 170 171 172 173 174 174 174 172 171 169 168 165 165 165 163 159 154 152 152 150 149 150 150 148 148 148 143 137 133 129 125 120 117 114 112 110 111 112 112 112 108 104 103 104 107
223 222 231 244 246 247 249 253 257 260 260 260 257 253 253 264 267 255 247 241 241 241 250 273 272 252 260 275 67 109 116 114 110 102 111 124 133 141 131 135 150 172 185 177 174 178 181 178 175 173 171 170 170 169 171 173 173 173 173 173 170 170 169 166 166 166 166 162 157 155 154 153 152 153 153 152 151 151 147 141 136 133 133 131 125 120 117 112 114 117 117 116 110 106 103 105 107
233 223 221 234 243 248 253 258 259 263 265 265 263 254 239 249 260 248 233 243 246 259 259 254 271 271 263 274 114 130 128 110 108 108 117 127 132 143 137 137 150 175 187 166 173 180 179 177 174 173 172 170 169 168 170 171 171 171 171 172 171 171 170 167 166 166 167 165 161 158 156 154 155 156 157 157 155 154 152 144 140 137 137 139 132 124 121 115 118 123 123 120 114 108 104 104 105
236 232 231 233 238 247 256 262 265 271 269 269 274 274 264 243 254 255 234 256 256 270 276 260 270 274 262 255 131 131 120 105 110 117 126 132 136 145 141 141 153 170 186 174 180 182 179 178 173 172 172 170 170 169 170 170 170 171 171 171 170 170 170 168 166 167 167 167 164 159 156 156 159 159 159 161 159 158 156 150 144 141 140 139 133 129 125 115 118 127 127 124 118 111 106 104 102
233 237 245 248 245 245 251 256 263 269 269 270 270 273 279 256 251 311 282 271 267 267 287 283 276 276 263 249 129 104 112 118 117 119 128 135 134 143 146 153 161 169 181 177 178 175 175 174 170 174 173 170 170 169 170 171 170 170 170 169 168 168 168 168 167 167 169 170 167 160 158 159 163 163 161 164 163 162 160 154 148 144 142 138 135 135 131 117 118 128 130 129 121 113 109 105 101
230 242 247 256 258 253 252 254 257 260 265 275 270 278 318 297 233 237 274 276 283 294 305 296 286 283 267 259 118 114 132 134 125 122 132 142 138 140 145 160 171 170 175 180 179 167 169 172 168 175 174 170 170 168 170 173 174 171 170 169 169 169 168 170 168 169 171 171 167 161 161 162 165 165 165 167 166 166 163 157 152 149 146 142 142 142 138 124 120 128 131 128 122 116 110 105 103
223 249 248 249 255 256 258 259 264 263 266 267 272 295 328 321 342 238 301 308 298 307 309 300 298 292 283 299 109 122 132 132 131 124 129 144 146 145 140 155 172 167 173 187 188 168 170 178 173 178 175 172 171 168 171 173 175 173 171 172 171 171 171 171 170 171 173 171 166 162 164 164 164 167 169 171 169 167 166 162 157 154 151 149 149 149 146 133 127 129 128 125 121 115 108 106 107
215 235 246 250 247 250 255 259 267 270 280 270 284 356 318 302 24 56 333 301 281 289 297 301 301 313 310 293 125 127 132 136 135 125 127 141 153 151 133 144 161 162 171 189 197 180 179 184 178 182 178 174 171 167 169 169 173 173 172 173 172 173 172 172 172 171 171 169 167 164 165 166 166 169 172 176 174 169 170 169 162 158 155 155 157 157 152 142 137 132 128 126 121 117 112 111 111
223 224 235 248 248 251 256 258 268 279 300 291 30 55 4 298 295 324 306 270 263 268 277 289 289 301 298 274 181 128 134 144 143 135 133 142 157 150 124 142 159 162 167 181 196 187 186 188 180 184 183 176 171 168 169 169 172 173 173 172 171 171 170 170 170 169 168 167 168 166 166 167 169 171 174 180 178 174 175 173 168 162 158 158 161 162 157 149 143 139 135 129 124 121 116 114 116
230 238 233 242 249 258 263 268 289 307 335 318 345 65 31 332 312 320 302 286 287 270 263 258 260 272 264 263 268 148 150 152 149 142 140 148 157 155 134 141 156 167 177 184 195 195 195 192 182 182 184 179 174 171 170 171 172 172 172 170 168 167 167 166 166 167 168 169 170 169 166 166 169 173 178 181 178 179 179 176 173 166 161 161 164 165 160 155 151 148 142 132 128 122 115 115 119
224 239 243 244 242 257 269 296 327 322 343 323 328 9 355 346 324 298 294 293 296 297 298 280 260 256 252 248 260 245 201 158 135 132 139 149 151 150 147 151 165 172 183 191 194 196 200 198 187 183 184 181 178 174 172 173 171 169 170 169 167 167 167 166 166 168 170 171 172 171 168 166 167 173 180 175 174 183 180 177 177 171 166 163 166 168 162 161 160 157 151 143 138 129 130 143 136
216 225 243 253 250 276 286 333 5 332 342 330 324 333 317 324 318 297 296 288 282 279 269 272 275 277 274 252 249 260 238 140 121 121 126 138 150 154 154 164 171 151 158 188 196 199 209 208 194 185 185 184 182 177 174 174 171 168 167 168 168 168 168 167 167 170 173 174 174 174 172 169 168 173 176 170 175 186 181 179 181 178 172 167 171 171 167 167 166 164 160 157 153 147 158 168 159
237 251 264 271 275 294 296 328 17 349 336 324 312 311 307 309 298 288 282 275 271 276 278 283 279 281 296 283 273 332 64 90 116 128 128 138 160 155 136 147 159 155 160 184 197 203 211 214 204 189 185 185 184 179 175 174 172 169 168 168 168 170 171 168 168 171 176 176 176 178 177 173 171 175 177 171 176 186 185 185 183 182 178 172 174 172 173 173 169 170 168 167 166 169 181 177 166
245 264 266 269 277 298 299 314 4 20 324 303 300 306 306 301 297 292 281 277 277 282 293 305 308 317 326 326 323 0 63 56 72 120 147 159 171 149 132 146 164 179 185 194 202 203 203 210 212 195 187 185 184 181 176 174 173 172 171 170 168 170 169 167 170 173 177 179 178 180 179 177 174 176 178 175 177 181 184 187 183 182 181 178 175 173 181 179 172 178 180 177 173 176 186 185 177
252 265 269 270 278 306 303 302 321 322 297 292 295 298 293 290 293 287 277 271 268 277 290 298 304 314 319 319 314 332 44 45 359 342 320 189 172 145 143 165 178 183 191 201 205 206 201 204 215 205 191 186 184 181 177 173 175 174 172 172 169 170 169 168 172 174 178 180 179 181 179 180 178 177 179 178 180 179 182 186 183 182 182 183 177 175 189 184 175 186 194 193 191 185 181 180 182
254 251 259 273 277 279 281 287 292 287 285 285 277 273 271 272 275 275 276 274 270 285 294 289 284 292 309 301 302 329 15 24 317 307 298 270 140 133 147 170 190 192 191 199 202 215 216 218 237 222 198 188 185 181 176 174 175 175 174 174 172 173 170 170 174 174 179 180 180 181 179 182 183 179 180 182 182 181 183 185 185 185 184 187 181 181 192 188 181 189 198 201 202 194 178 168 169
276 261 258 298 299 276 271 268 269 267 265 266 265 263 260 257 260 264 266 271 279 276 263 268 278 297 323 305 309 336 337 325 293 277 282 278 131 132 153 173 209 207 179 182 198 206 212 231 262 246 212 196 189 182 175 175 176 174 175 176 175 175 172 173 175 176 179 180 181 181 182 184 184 181 180 182 185 185 185 186 189 188 186 190 187 188 193 191 191 193 197 202 193 181 174 163 159
345 294 285 309 295 284 280 276 272 267 266 266 268 267 266 261 256 255 252 246 247 262 257 260 286 290 330 327 325 331 313 294 277 265 275 283 138 138 161 195 223 210 180 194 205 206 208 218 230 223 214 208 206 195 178 174 177 175 174 177 177 176 175 174 176 179 180 181 181 182 186 184 182 183 180 181 187 189 185 186 193 192 187 191 192 195 195 191 198 194 194 204 188 171 170 165 165
317 286 288 284 276 273 262 264 265 263 263 257 266 274 269 262 253 251 261 242 176 284 306 302 298 325 14 352 334 322 305 287 280 277 277 287 271 169 174 205 223 191 202 218 213 211 210 214 213 207 205 202 218 224 192 177 174 176 175 177 180 179 179 177 178 182 182 184 183 182 186 185 183 183 181 182 187 192 186 185 195 196 188 192 195 198 195 192 197 192 191 206 191 171 171 169 171
288 269 277 267 261 250 233 237 244 252 260 250 294 289 261 244 237 235 244 235 92 41 312 295 298 8 20 335 317 309 308 305 301 298 281 276 287 242 180 196 192 169 205 236 232 217 208 209 209 206 207 199 205 223 221 194 176 177 179 180 182 181 182 180 182 185 184 184 184 184 185 185 187 184 180 182 186 193 190 186 197 199 189 192 198 197 194 191 194 195 195 204 191 173 172 170 172
274 250 255 264 263 239 209 198 221 239 153 145 296 280 268 240 216 218 222 158 63 33 328 318 311 33 12 312 321 309 296 294 288 293 298 311 331 331 315 190 168 175 204 214 225 217 194 196 204 206 213 208 203 207 215 217 198 187 184 184 184 183 184 182 185 189 186 184 184 186 186 186 189 187 185 186 187 192 192 190 195 199 193 194 201 200 196 191 194 201 200 199 193 183 179 176 176
259 247 231 243 269 215 163 168 205 215 136 197 251 252 287 250 180 187 114 79 53 350 297 289 283 307 318 302 306 290 277 291 297 294 292 293 302 319 328 328 173 206 202 130 106 100 175 194 205 207 215 215 208 202 195 201 223 226 204 192 188 188 187 183 187 191 187 185 184 184 186 186 188 188 190 190 189 191 194 194 193 195 198 196 199 199 198 195 198 205 202 197 195 191 186 182 184
227 249 240 240 284 114 143 168 197 206 128 188 247 264 289 72 116 114 81 79 60 306 271 255 260 274 288 281 275 279 296 323 307 292 272 262 286 7 3 349 20 110 169 116 104 87 228 215 221 217 217 215 204 198 192 191 208 243 263 236 201 193 190 186 188 190 187 185 184 183 184 185 186 188 191 190 189 191 194 195 190 193 199 200 197 193 195 199 201 206 205 197 195 195 190 184 188
204 249 282 311 282 171 151 178 193 202 225 215 232 267 279 119 122 123 120 146 197 240 248 238 253 264 268 265 262 273 287 291 282 303 41 56 32 32 18 13 56 88 138 163 173 205 226 223 221 219 219 214 200 194 196 194 197 220 252 267 253 218 195 190 190 189 187 184 183 184 184 185 187 188 188 190 191 190 193 194 191 192 198 203 204 191 192 198 200 208 207 196 195 200 198 187 185
279 255 310 335 287 295 170 185 179 161 199 250 246 255 272 268 158 138 160 182 188 231 241 233 257 270 278 294 306 295 291 285 283 51 65 54 28 28 22 42 79 95 119 135 153 208 230 223 214 215 218 216 204 198 199 196 196 208 222 240 269 268 217 198 193 189 190 185 182 184 185 186 190 188 186 190 192 190 191 194 192 193 194 201 208 195 192 198 201 211 208 194 196 205 207 192 181
281 266 293 297 279 289 283 199 143 156 196 237 261 257 275 283 255 220 230 202 169 257 260 266 293 310 311 320 304 300 303 289 296 77 79 53 25 34 22 35 94 102 98 100 257 236 223 213 208 210 212 214 208 201 202 200 200 207 213 222 249 271 258 229 202 190 190 186 183 185 186 187 190 188 186 190 192 190 191 194 193 194 192 196 207 202 192 198 204 215 210 196 201 208 213 201 180
296 306 296 288 271 250 277 283 151 192 221 233 258 269 274 274 266 268 277 300 305 278 289 306 311 306 297 288 278 310 310 294 331 9 24 28 30 46 30 21 80 102 106 97 282 244 226 216 208 201 199 205 203 198 202 204 203 204 210 219 233 250 262 270 251 211 195 186 185 188 187 187 188 187 186 189 192 191 190 193 194 195 195 194 201 200 194 199 207 217 209 200 207 208 217 213 181
296 293 277 271 267 257 298 293 213 170 179 247 259 272 271 270 278 289 297 311 298 292 311 311 308 304 306 325 347 9 357 343 3 3 11 21 21 30 28 18 29 61 110 105 316 237 233 228 209 196 196 200 197 196 200 201 197 197 200 209 223 229 230 256 282 265 235 201 188 188 188 188 188 186 186 188 190 192 191 192 194 194 196 196 196 194 193 200 209 215 204 200 209 205 215 220 184
285 280 269 261 268 317 358 312 288 126 202 264 275 274 271 272 284 294 289 298 294 284 298 343 2 7 16 22 17 13 9 3 4 4 12 16 13 16 20 17 12 7 38 94 7 245 213 220 216 206 204 203 200 200 201 201 197 194 195 201 210 216 215 224 236 237 255 266 217 191 186 187 189 188 188 188 190 192 193 193 193 192 192 195 198 196 195 199 206 210 200 197 206 204 213 220 187
272 264 267 271 293 342 359 305 297 320 275 276 285 277 288 315 339 344 334 5 21 31 55 48 36 32 24 23 21 9 1 4 2 357 4 7 10 13 12 16 11 355 348 48 40 285 197 207 217 211 211 208 206 209 205 203 201 198 201 204 204 207 211 215 211 205 223 263 268 229 193 186 189 190 190 190 191 193 195 196 193 190 190 193 196 198 200 203 204 207 201 197 201 201 211 221 198
272 285 292 267 233 273 311 275 278 288 269 285 313 311 330 352 14 8 353 61 66 57 62 57 46 37 22 14 14 9 357 355 357 352 357 7 10 8 6 10 10 355 347 360 106 222 203 201 216 217 217 210 210 217 211 208 208 205 210 210 200 200 207 211 209 206 212 222 238 251 221 194 192 193 194 193 193 195 195 197 195 190 191 193 195 196 199 204 206 207 202 196 197 198 206 221 210
330 14 327 299 276 283 295 268 253 256 267 354 12 9 353 349 14 15 8 60 65 57 56 47 39 34 23 10 2 359 352 342 344 345 347 5 13 5 4 5 1 359 354 354 350 280 228 211 219 222 215 208 211 218 214 213 216 210 210 212 201 194 196 204 206 207 211 210 211 220 223 212 203 197 197 199 197 197 197 197 197 193 193 194 195 196 197 202 205 207 203 196 197 200 201 212 211
2 30 305 303 320 321 308 299 284 262 284 49 57 57 329 323 10 27 25 73 61 47 43 29 22 18 6 358 354 351 344 333 328 331 333 349 16 7 1 2 355 2 4 349 341 328 293 233 221 224 220 213 211 215 214 215 220 215 206 206 206 196 188 193 201 203 204 206 206 206 207 215 218 207 202 205 203 202 202 201 199 196 195 195 196 197 198 200 202 205 204 200 200 205 204 205 205
337 359 309 308 307 304 298 292 288 266 264 58 113 146 277 303 12 27 51 95 62 36 32 23 13 10 1 354 353 343 331 324 318 321 327 335 4 9 1 1 352 355 5 348 339 334 321 290 241 227 225 223 216 213 215 215 219 221 216 211 209 207 198 195 202 206 206 204 202 200 202 208 217 217 211 210 210 207 205 204 204 200 196 196 197 198 199 200 201 201 202 203 204 208 209 207 204
299 317 320 310 291 293 300 289 285 257 128 43 290 191 146 99 60 23 41 65 45 31 28 19 8 6 7 360 349 332 325 323 316 317 321 323 348 4 355 353 349 351 358 349 339 333 324 316 295 249 226 229 225 215 212 214 216 219 221 218 213 210 209 208 208 210 211 205 195 195 203 206 210 218 218 215 215 212 207 205 207 205 199 198 199 200 202 202 202 201 201 202 205 210 211 209 208
301 316 312 300 288 292 297 282 275 211 130 163 253 200 148 86 137 89 55 43 26 24 18 15 13 5 5 2 349 335 331 331 325 322 321 320 335 354 349 341 344 349 351 344 336 334 328 318 309 289 246 230 225 213 208 214 217 219 222 223 224 219 214 218 219 215 214 205 192 192 202 207 211 218 221 219 219 216 209 207 207 207 204 201 199 201 205 206 203 203 202 202 204 209 212 211 213
288 275 263 254 272 284 281 279 294 349 272 255 252 153 126 87 45 73 48 30 18 12 10 17 13 3 3 2 350 344 340 339 338 334 332 332 335 342 337 327 334 347 347 342 335 331 329 322 314 304 281 242 220 213 214 219 219 218 219 224 231 233 225 222 221 215 214 209 197 195 200 205 212 220 225 222 219 218 212 207 206 207 208 204 200 201 205 207 206 205 203 202 203 205 210 214 217
270 267 263 231 273 312 301 330 358 348 234 231 287 26 104 148 127 70 36 28 21 8 10 14 6 2 2 355 346 347 343 340 340 337 337 336 334 333 326 317 325 338 338 336 334 331 327 323 317 308 301 271 226 222 223 221 221 219 215 218 230 238 234 225 220 215 215 215 208 200 199 204 209 220 230 227 219 218 215 207 205 207 209 207 202 201 203 205 206 206 204 203 202 204 208 212 217
276 301 314 42 64 352 330 10 12 351 333 62 31 48 69 113 119 90 59 44 33 18 12 7 2 2 0 352 348 346 341 338 338 336 336 332 328 326 325 322 323 330 331 327 326 326 324 322 319 313 314 298 229 225 232 223 221 222 222 224 227 233 233 224 220 218 215 218 219 210 202 204 207 216 231 232 222 218 216 210 205 205 208 209 206 202 201 204 206 203 202 203 202 205 208 208 213
304 347 348 17 77 357 312 191 16 166 318 12 52 68 68 88 104 90 64 45 32 24 19 9 3 3 0 355 353 348 343 346 344 340 339 335 330 327 325 324 323 324 324 317 316 320 320 320 322 318 317 314 234 207 222 229 230 225 224 226 225 230 235 227 222 222 218 217 221 219 209 204 205 211 225 231 222 216 215 213 207 203 206 210 209 205 200 202 205 201 199 202 203 204 207 207 210
320 355 357 12 61 296 297 241 158 135 133 63 74 73 91 115 103 60 55 44 29 23 22 18 10 7 7 0 358 354 348 351 349 342 341 340 337 332 326 320 316 315 312 312 317 317 316 319 319 318 316 318 300 216 205 214 224 225 226 227 227 232 240 236 233 233 229 225 223 222 218 214 211 211 219 225 221 214 212 214 210 203 203 208 210 207 203 200 200 198 197 201 204 204 206 210 212
322 8 6 21 25 339 346 3 16 21 16 70 88 75 78 133 170 44 46 42 38 25 12 22 21 10 9 6 3 357 348 351 347 338 342 341 338 336 333 329 322 315 310 309 308 305 311 316 312 312 313 315 313 282 236 218 215 214 219 223 226 230 229 227 232 234 234 236 233 226 222 219 218 217 219 221 220 213 210 213 214 206 201 205 208 207 205 201 194 192 196 198 201 202 203 208 212
321 357 13 39 20 335 334 4 4 5 354 16 80 85 85 123 180 91 45 31 39 27 3 8 15 7 8 8 4 359 350 352 348 339 340 340 339 339 336 334 329 320 314 307 299 297 304 305 302 305 308 309 309 300 283 261 241 227 219 213 217 225 224 218 221 224 226 232 235 230 223 217 217 219 221 223 221 215 210 211 218 214 203 201 206 207 207 205 198 195 196 196 196 195 196 199 203
308 338 33 39 359 325 318 183 186 236 273 292 102 104 107 113 121 308 25 24 18 24 15 3 1 1 4 2 357 356 351 351 351 344 341 340 339 338 336 334 329 322 316 308 302 300 296 293 296 297 296 301 304 300 295 284 269 257 241 223 218 225 225 220 219 220 219 223 229 231 227 222 220 221 222 225 226 219 210 209 218 228 215 207 209 208 209 211 207 203 199 195 194 193 194 196 197
327 5 37 349 294 319 319 288 260 246 274 324 105 122 144 112 108 299 24 27 3 12 23 5 358 359 358 357 354 354 352 350 350 347 345 341 337 336 334 333 329 323 316 306 299 296 287 280 282 285 285 295 304 300 296 291 281 270 257 243 232 228 225 224 226 227 225 223 227 231 231 228 226 226 225 227 231 224 212 208 212 217 216 217 216 212 213 216 215 211 204 198 195 195 196 198 198
12 6 15 325 295 352 335 323 330 310 313 331 120 138 133 44 17 346 17 19 356 3 12 359 0 360 354 353 353 354 353 349 349 348 345 342 340 339 335 330 327 325 324 314 302 297 292 281 276 280 286 291 292 288 285 288 287 279 269 255 241 231 226 226 228 230 227 224 225 228 231 232 232 233 233 232 234 229 220 219 219 213 212 220 223 224 230 229 222 215 209 202 199 197 199 200 200
28 334 23 21 335 347 342 319 314 310 318 321 304 178 89 43 2 349 1 4 353 353 356 1 5 359 355 354 352 356 354 349 348 347 346 346 347 344 337 331 326 326 330 323 310 302 299 293 286 288 296 294 288 284 279 279 279 277 274 262 246 234 229 228 228 229 229 228 229 227 228 234 235 234 233 232 233 231 224 224 227 219 216 218 216 224 239 242 230 220 212 205 200 199 202 205 205
3 355 24 12 345 354 322 285 295 323 320 316 313 327 73 71 358 346 354 357 354 352 352 3 7 358 358 356 350 351 350 348 348 345 347 350 349 345 337 329 325 326 330 326 319 311 304 304 302 301 305 304 303 301 293 285 281 278 278 270 256 241 233 234 234 232 232 232 233 233 232 235 237 234 234 233 233 231 219 218 223 223 220 218 211 216 233 239 232 224 216 208 199 198 201 204 207
358 12 18 354 357 5 318 292 23 348 326 310 309 327 55 47 351 353 1 350 350 356 350 345 1 8 1 355 349 347 346 347 348 346 347 349 346 340 334 326 324 326 326 325 325 320 312 313 313 307 302 300 303 308 306 308 311 308 305 296 278 258 241 237 238 236 236 237 238 239 238 236 234 236 237 236 235 233 224 220 224 223 219 217 213 215 228 235 232 226 219 209 200 198 199 202 206